Other Public Products
Issued by NWS Charleston, SC

Current Version | Previous Version | Text Only | Print | Product List | Glossary Off
Versions: 1 2 3 4 5 6 7 8 9 10 11 12 13 14 15 16 17 18 19 20 21 22 23 24 25 26 27 28 29 30 31 32 33 34 35 36 37 38 39 40 41 42 43 44 45 46 47 48 49 50

000
FPUS82 KCHS 161912
OPUCHS

TEST...KCHS/KSAV Gateway Observations...TEST
National Weather Service Charleston SC
200 PM EST TUE JAN 16 2018

NOTE: "fair" indicates few or no clouds below 12,000 feet with no
significant weather and/or obstructions to visibility.

SCZ050-WAZ558-NCZ071-TXZ119-213-PAZ071-DCZ001-FLZ074-172-MI076-
NYZ176-178-MAZ016-IL014-TNZ027-NJZ106-GAZ044-MD014-162000-

...Gateway Observations for Charleston International...

CITY           SKY/WX    TMP DP  RH WIND       PRES   REMARKS
Chas Airport   PTSUNNY   57  26  30 SE5       30.37F
Seattle        MOSUNNY   52  43  71 S14       30.21R
Charlotte      PTSUNNY   49  21  33 SW9       30.35F
Dallas DFW     MOSUNNY   26   0  32 N15G23    30.75F WCI  14
Dallas Love    MOSUNNY   25   2  37 NW15G26   30.78F WCI  13
Philladelphia  PTSUNNY   43  29  57 CALM      30.40F
Wash National  CLOUDY    38  25  59 S5        30.40F WCI  34
Baltimore      PTSUNNY   39  26  59 CALM      30.38F
Miami          PTSUNNY   74  53  48 NE10      30.22F
Detroit        LGT SNOW  11   6  81 SW10      30.39S WCI  -3
Newark         CLOUDY    37  30  75 NE6       30.43F WCI  32
Laguardia      CLOUDY    33  25  72 NE9       30.43F WCI  25
J F K          PTSUNNY   37  30  75 E6        30.44F WCI  32
Boston Logan   PTSUNNY   32  23  69 SE5       30.46F WCI  27
Ft. Lauderdale FAIR      72  56  57 NE13G20   30.21F
Chicago O`Hare FAIR      24  12  60 NW13      30.43F WCI  12
Chicago Midway PTSUNNY   24  17  74 NW14      30.44S WCI  12
Houston Bush   LGTSLEET  26  22  84 N17G28    30.64F FOG     WCI  13
Houston Hobby  LGTSLEET  27  27 100 N17G23    30.61F FOG     WCI  14
Nashville      CLOUDY    14   6  70 NW8G24    30.57F WCI   3
Atlanta        PTSUNNY   49  29  46 W10       30.35F

$$

GAZ044-118-TXZ119-213-NCZ071-DCZ001-MDZ014-506-PAZ021-071-NJZ106-
NYZ176-178-MAZ106-OHZ011-021-055-MIZ076-KYZ091-ILZ014-INZ047-
MNZ060-ONZ431-162000-

...Gateway Observations for Savannah International...

CITY           SKY/WX    TMP DP  RH WIND       PRES   REMARKS
Savannah Arpt  PTSUNNY   57  26  30 CALM      30.37F
Atlanta        PTSUNNY   49  29  46 W10       30.35F
Charlotte      PTSUNNY   49  21  33 SW9       30.35F
Dallas DFW     MOSUNNY   26   0  32 N15G23    30.75F WCI  14
Houston Bush   LGTSLEET  26  22  84 N17G28    30.64F FOG     WCI  13
Wash National  CLOUDY    38  25  59 S5        30.40F WCI  34
Wash Dulles    PTSUNNY   37  22  54 CALM      30.38F
Baltimore      PTSUNNY   39  26  59 CALM      30.38F
Philadelphia   PTSUNNY   43  29  57 CALM      30.40F
Newark         CLOUDY    37  30  75 NE6       30.43F WCI  32
Laguardia      CLOUDY    33  25  72 NE9       30.43F WCI  25
J F K          PTSUNNY   37  30  75 E6        30.44F WCI  32
Boston         PTSUNNY   32  23  69 SE5       30.46F WCI  27
Pittsburg      LGT SNOW  22  18  85 W6        30.31F FOG     WCI  14
Akron          FAIR      10   1  67 W10       30.36F WCI  -4
Cleveland      CLOUDY    13   4  67 SW12      30.42S WCI  -1
Cincinnati     FAIR       9   0  67 W9        30.46F WCI  -4
Columbus       FAIR       8   0  71 W12       30.46S WCI  -7
Detroit        LGT SNOW  11   6  81 SW10      30.39S WCI  -3
Chicago O`Hare FAIR      24  12  60 NW13      30.43F WCI  12
Minneapolis    FAIR       7  -2  66 W8        30.65F WCI  -6
Indianapolis   FLURRIES   4  -3  73 SW16      30.51S WCI -15
Toronto Canada MOSUNNY   25  14  63 W10       30.32F WCI  15

$$




USA.gov is the U.S. government's official web portal to all federal, state and local government web resources and services.